This is the latest recevied weather packets stored in our database for station/object N2ZVN. If no packets are shown the sender has not sent any weather packets the latest 10 day(s).
| Time | Temp. | Humidity | Pressure | Rain* | Wind** | Luminosity | Snow |
|---|---|---|---|---|---|---|---|
| 1777683075 | 6.11° C | 87% | 1013.4 hPa | 0 mm | - | 0 W/m² | - |
| 1777682771 | 6.11° C | 87% | 1013.5 hPa | 0 mm | - | 0 W/m² | - |
| 1777682468 | 6.67° C | 86% | 1013.1 hPa | 0 mm | - | 0 W/m² | - |
| 1777682166 | 6.67° C | 87% | 1013.3 hPa | 0 mm | - | 0 W/m² | - |
| 1777681863 | 6.67° C | 82% | 1013.2 hPa | 0 mm | - | 0 W/m² | - |
| 1777681559 | 6.67° C | 81% | 1013.2 hPa | 0 mm | - | 0 W/m² | - |
| 1777681256 | 6.67° C | 84% | 1013.1 hPa | 0 mm | - | 1 W/m² | - |
| 1777680954 | 7.22° C | 82% | 1013 hPa | 0 mm | - | 2 W/m² | - |
| 1777680651 | 7.22° C | 73% | 1012.9 hPa | 0 mm | - | 3 W/m² | - |
| 1777680349 | 7.22° C | 73% | 1013 hPa | 0 mm | - | 4 W/m² | - |
| 1777680046 | 7.22° C | 74% | 1012.9 hPa | 0 mm | - | 6 W/m² | - |
| 1777679742 | 7.22° C | 73% | 1012.9 hPa | 0 mm | - | 8 W/m² | - |
| 1777679438 | 7.78° C | 74% | 1013 hPa | 0 mm | - | 11 W/m² | - |
| 1777679134 | 7.78° C | 73% | 1012.7 hPa | 0 mm | - | 14 W/m² | - |
| 1777678832 | 7.78° C | 73% | 1012.7 hPa | 0 mm | - | 16 W/m² | - |
| 1777678529 | 7.78° C | 73% | 1012.6 hPa | 0 mm | - | 19 W/m² | - |
| 1777678226 | 7.78° C | 76% | 1013 hPa | 0 mm | - | 21 W/m² | - |
| 1777677922 | 7.78° C | 76% | 1012.7 hPa | 0 mm | - | 25 W/m² | - |
| 1777677620 | 7.78° C | 75% | 1012.7 hPa | 0 mm | - | 32 W/m² | - |
| 1777677318 | 7.78° C | 76% | 1012.9 hPa | 0 mm | - | 37 W/m² | - |
| 1777677016 | 7.78° C | 75% | 1012.5 hPa | 0 mm | - | 39 W/m² | - |
| 1777676715 | 7.78° C | 74% | 1012.7 hPa | 0 mm | - | 43 W/m² | - |
| 1777676411 | 7.78° C | 74% | 1012.7 hPa | 0 mm | - | 42 W/m² | - |
| 1777676109 | 7.78° C | 76% | 1012.7 hPa | 0 mm | - | 52 W/m² | - |
| 1777675804 | 7.78° C | 77% | 1012.7 hPa | 0 mm | - | 62 W/m² | - |
* Rain latest hour (hover to see other rain measurements)
** Current wind speed in m/s (hover to see current wind gust speed)